Weather History for Alpine, TX

Change the Weather History Date:

Thursday, July 19, 2012

  Actual Average (KMRF) Record (KMRF)
Temperature  
Mean Temperature 72 °F -  
Max Temperature 82 °F 85 °F 93 °F (2004)
Min Temperature 63 °F 59 °F 42 °F (1998)
Cooling Degree Days 8    
Growing Degree Days 22 (Base 50)    
Moisture  
Dew Point 58 °F    
Average Humidity 64    
Maximum Humidity 87    
Minimum Humidity 39    
Precipitation  
Precipitation 0.05 in - - ()
Sea Level Pressure  
Sea Level Pressure 30.25 in    
Wind  
Wind Speed 5 mph (SE)    
Max Wind Speed 21 mph    
Max Gust Speed 26 mph    
Visibility 10 miles    
Events      
Averages and records for this station are not official NWS values.
T = Trace of Precipitation, MM = Missing Value Source: NWS Daily Summary

Daily Weather History Graph

Daily Weather History Graph

Search for Another Location

Airport:

Trip Planner

Search our weather history database for the weather conditions in past years. The results will help you decide how hot, cold, wet, or windy it might be!

Date:

Astronomy

Jul. 19, 2012 Rise Set
Actual Time 7:05 AM CDT 8:56 PM CDT
Civil Twilight 6:38 AM CDT 9:23 PM CDT
Nautical Twilight 6:06 AM CDT 9:55 PM CDT
Astronomical Twilight 5:32 AM CDT 10:29 PM CDT
Moon 7:36 AM CDT (7/19) 9:12 PM CDT (7/19)
Length of Visible Light 14h 44m
Length of Day
13h 50m
New Moon, 0% of the Moon is Illuminated
Jul 19
New Moon
Jul 26
First Quarter
Aug 1
Full
Aug 9
Last Quarter
Aug 17
New

Hourly Weather History & Observations

Time (CDT) Temp. Heat Index Dew Point Humidity Pressure Visibility Wind Dir Wind Speed Gust Speed Precip Events Conditions
12:15 AM 70.3 °F - 60.6 °F 71% 30.23 in 10.0 mi Calm Calm - N/A   Clear
12:35 AM 70.5 °F - 60.1 °F 69% 30.23 in 10.0 mi SE 5.8 mph - N/A   Clear
12:55 AM 70.5 °F - 59.5 °F 68% 30.23 in 10.0 mi South 3.5 mph - N/A   Clear
1:15 AM 69.4 °F - 59.4 °F 70% 30.23 in 10.0 mi SSW 5.8 mph - N/A   Clear
1:35 AM 68.5 °F - 59.7 °F 73% 30.23 in 10.0 mi South 4.6 mph - N/A   Clear
1:55 AM 68.0 °F - 59.7 °F 75% 30.23 in 10.0 mi SSE 4.6 mph - N/A   Clear
2:15 AM 67.6 °F - 59.7 °F 76% 30.24 in 10.0 mi South 3.5 mph - N/A   Clear
2:35 AM 66.9 °F - 59.5 °F 77% 30.23 in 10.0 mi Calm Calm - N/A   Clear
2:55 AM 66.7 °F - 59.7 °F 78% 30.24 in 10.0 mi Calm Calm - N/A   Clear
3:15 AM 66.7 °F - 59.4 °F 77% 30.24 in 10.0 mi South 6.9 mph - N/A   Scattered Clouds
3:35 AM 67.1 °F - 58.6 °F 74% 30.24 in 10.0 mi SW 3.5 mph - N/A   Scattered Clouds
3:55 AM 66.6 °F - 58.1 °F 74% 30.24 in 10.0 mi East 4.6 mph - N/A   Scattered Clouds
4:15 AM 65.7 °F - 58.1 °F 77% 30.24 in 10.0 mi South 4.6 mph - N/A   Clear
4:35 AM 64.8 °F - 58.6 °F 81% 30.24 in 10.0 mi South 3.5 mph - N/A   Clear
4:55 AM 64.4 °F - 58.8 °F 82% 30.24 in 10.0 mi Calm Calm - N/A   Clear
5:15 AM 64.0 °F - 58.5 °F 82% 30.23 in 10.0 mi Calm Calm - N/A   Clear
5:35 AM 63.5 °F - 58.3 °F 83% 30.23 in 10.0 mi SE 3.5 mph - N/A   Clear
5:55 AM 63.3 °F - 58.6 °F 85% 30.24 in 10.0 mi Calm Calm - N/A   Clear
6:15 AM 63.5 °F - 59.0 °F 85% 30.24 in 10.0 mi Calm Calm - N/A   Clear
6:35 AM 63.1 °F - 58.5 °F 85% 30.24 in 10.0 mi Calm Calm - N/A   Clear
7:15 AM 63.7 °F - 57.9 °F 81% 30.25 in 10.0 mi Calm Calm - N/A   Clear
7:35 AM 64.2 °F - 57.0 °F 77% 30.24 in 10.0 mi SE 3.5 mph - N/A   Scattered Clouds
7:55 AM 64.6 °F - 56.8 °F 76% 30.25 in 10.0 mi South 3.5 mph - N/A   Clear
8:35 AM 67.8 °F - 56.7 °F 67% 30.26 in 10.0 mi SSE 3.5 mph - N/A   Clear
8:55 AM 68.7 °F - 56.5 °F 65% 30.26 in 10.0 mi Calm Calm - N/A   Clear
9:15 AM 69.6 °F - 55.9 °F 62% 30.27 in 10.0 mi ENE 3.5 mph - N/A   Clear
9:35 AM 71.1 °F - 55.8 °F 58% 30.27 in 10.0 mi East 5.8 mph - N/A   Clear
9:55 AM 70.7 °F - 56.5 °F 61% 30.28 in 10.0 mi SSE 9.2 mph - N/A   Scattered Clouds
10:15 AM 70.3 °F - 56.8 °F 62% 30.28 in 10.0 mi SE 9.2 mph - N/A   Mostly Cloudy
10:35 AM 70.2 °F - 57.9 °F 65% 30.29 in 10.0 mi SSE 10.4 mph - N/A   Scattered Clouds
10:55 AM 72.0 °F - 58.1 °F 62% 30.29 in 10.0 mi SE 9.2 mph - N/A   Mostly Cloudy
11:15 AM 73.4 °F - 57.4 °F 57% 30.29 in 10.0 mi SE 10.4 mph - N/A   Scattered Clouds
11:35 AM 73.6 °F - 57.2 °F 56% 30.29 in 10.0 mi SE 4.6 mph - N/A   Scattered Clouds
11:55 AM 76.1 °F - 57.7 °F 53% 30.28 in 10.0 mi ENE 9.2 mph - N/A   Mostly Cloudy
12:15 PM 75.6 °F - 57.0 °F 52% 30.29 in 10.0 mi SE 4.6 mph - N/A   Mostly Cloudy
12:35 PM 75.7 °F - 56.5 °F 51% 30.29 in 10.0 mi East 4.6 mph - N/A   Overcast
12:55 PM 76.8 °F - 55.9 °F 48% 30.28 in 10.0 mi SE 3.5 mph - N/A   Overcast
1:15 PM 77.0 °F - 55.8 °F 48% 30.28 in 10.0 mi East 4.6 mph - N/A   Overcast
1:35 PM 77.9 °F - 55.2 °F 45% 30.28 in 10.0 mi SE 6.9 mph - N/A   Overcast
1:55 PM 79.7 °F - 55.0 °F 43% 30.27 in 10.0 mi East 5.8 mph - N/A   Mostly Cloudy
2:15 PM 80.1 °F 80.2 °F 55.6 °F 43% 30.27 in 10.0 mi ESE 5.8 mph 17.3 mph N/A   Scattered Clouds
2:35 PM 80.1 °F 80.1 °F 54.9 °F 42% 30.26 in 10.0 mi ESE 8.1 mph 16.1 mph N/A   Scattered Clouds
2:55 PM 80.4 °F 80.4 °F 55.6 °F 42% 30.26 in 10.0 mi East 9.2 mph 16.1 mph N/A   Scattered Clouds
3:15 PM 81.9 °F 81.4 °F 56.3 °F 41% 30.25 in 10.0 mi ENE 10.4 mph - N/A   Mostly Cloudy
3:35 PM 80.2 °F 80.5 °F 56.8 °F 45% 30.25 in 10.0 mi ENE 5.8 mph - N/A   Overcast
3:55 PM 80.6 °F 80.6 °F 56.3 °F 43% 30.25 in 10.0 mi ESE 13.8 mph 21.9 mph N/A   Overcast
4:15 PM 80.2 °F 80.2 °F 54.3 °F 41% 30.24 in 10.0 mi SE 9.2 mph 21.9 mph N/A   Mostly Cloudy
4:35 PM 80.1 °F - 52.9 °F 39% 30.24 in 10.0 mi East 8.1 mph - N/A   Scattered Clouds
4:55 PM 81.1 °F 81.0 °F 56.3 °F 42% 30.23 in 10.0 mi South 4.6 mph - N/A   Scattered Clouds
5:15 PM 81.1 °F 81.1 °F 56.8 °F 43% 30.22 in 10.0 mi ESE 4.6 mph - N/A   Scattered Clouds
5:35 PM 81.0 °F 80.8 °F 55.8 °F 42% 30.21 in 10.0 mi ESE 10.4 mph - N/A   Mostly Cloudy
6:15 PM 81.5 °F 81.1 °F 55.9 °F 41% 30.20 in 10.0 mi Calm Calm - N/A   Mostly Cloudy
7:35 PM 82.2 °F 81.6 °F 55.9 °F 40% 30.19 in 10.0 mi East 11.5 mph 18.4 mph N/A   Scattered Clouds
7:55 PM 81.0 °F 80.9 °F 56.7 °F 43% 30.20 in 10.0 mi East 13.8 mph - N/A   Scattered Clouds
8:15 PM 79.5 °F - 57.2 °F 46% 30.22 in 10.0 mi East 15.0 mph 20.7 mph N/A   Scattered Clouds
8:35 PM 78.4 °F - 57.2 °F 48% 30.23 in 10.0 mi East 13.8 mph 19.6 mph N/A   Scattered Clouds
8:55 PM 74.7 °F - 58.3 °F 57% 30.24 in 10.0 mi SSE 20.7 mph 26.5 mph N/A   Scattered Clouds
9:15 PM 70.5 °F - 59.0 °F 67% 30.26 in 10.0 mi SSE 8.1 mph - N/A   Scattered Clouds
9:35 PM 69.4 °F - 60.8 °F 74% 30.26 in 10.0 mi SE 6.9 mph - N/A   Overcast
9:55 PM 67.3 °F - 61.5 °F 82% 30.27 in 10.0 mi SE 11.5 mph - 0.02 in   Overcast
10:15 PM 66.2 °F - 62.2 °F 87% 30.27 in 10.0 mi SSE 8.1 mph - 0.01 in   Overcast
10:35 PM 66.4 °F - 62.4 °F 87% 30.27 in 10.0 mi Calm Calm - 0.01 in   Overcast
10:55 PM 67.1 °F - 62.6 °F 85% 30.28 in 10.0 mi SSW 5.8 mph - 0.02 in   Overcast
11:15 PM 67.5 °F - 62.8 °F 85% 30.28 in 10.0 mi South 4.6 mph - N/A   Overcast
11:35 PM 68.0 °F - 62.8 °F 83% 30.28 in 10.0 mi South 3.5 mph - 0.01 in   Overcast
11:55 PM 68.5 °F - 62.8 °F 82% 30.29 in 10.0 mi Calm Calm - 0.01 in   Overcast